Погода в Медфорде

США     42°20′07″N   122°52′45″W
темп.,
°C
ветер,
м/с
пор.,
м/с
влажн.,
%
обл.,
%
осадки,
мм/ч
давл.,
гПа
погр.,
м
15 мая, сб
сб1523:00+12з0072100 0.1 101521
02:00+9ю1188100 0.0 101514
05:00+8ю11945 0.0 101611
08:00+12ссв11730 0.0 1016342
11:00+19с23430 0.0 1014906
14:00+25ссз24240 0.0 10112032
17:00+24ссз55260 0.0 10102084
20:00+17ссз12430 0.0 101233
16 мая, вс
вс1623:00+12ю22530 0.0 101420
02:00+10ююв21600 0.0 101415
05:00+8ююв11690 0.0 101510
08:00+13св11530 0.0 1015264
11:00+21с22340 0.0 1013818
14:00+26с22190 0.0 10111814
17:00+26ссз43240 0.0 10102127
20:00+18с24450 0.0 1012182
17 мая, пн
пн1723:00+12ююз11630 0.0 101418
02:00+10ю11770 0.0 101514
05:00+9ю11860 0.0 101612
08:00+13св11675 0.0 1016298
11:00+21ссз33420 0.0 10141121
14:00+25ссз352616 0.0 10132209
17:00+24зсз66200 0.0 10122067
20:00+17ссз3642100 0.0 1015360
18 мая, вт
вт1823:00+9ююз11673 0.0 101925
02:00+6ююз1176100 0.0 101943
05:00+5ююз118319 0.0 102033
08:00+9с106356 0.0 1020377
11:00+16с233829 0.0 10171343
14:00+20ссз452432 0.0 10142298
17:00+20сз552325 0.0 10132089
20:00+12сз2446100 0.0 1015291
19 мая, ср
ср1923:00+6з116192 0.0 101865
02:00+5з0164100 0.0 101894
05:00+6ссз1162100 0.0 1018182
08:00+7с1160100 0.0 1018867
11:00+10с2251100 0.1 10161523
14:00+13ссв2340100 0.1 10141868
17:00+11сз3450100 0.3 10121569
20:00+5з2495100 1.6 1015787